Participated 1 time
in 1932
Gottlieb Wanzenried, Switzerland
Tour de France 2026 starts from Barcelona, Spain in

Stats and Facts from
Tour de France.

2026   2025   2024   2023  2022  2021  2020  2019   2018  2017   2016   2015  2014  2013   2012   2011  2010   2009   2008   2007   2006   2005   2004   2003   2002   2001   2000   1999   1998   1997  1996   1995   1994   1993   1992  1991   1990   1989   1988   1987   1986   1985   1984   1983  1982  1981   1980   1979  1978  1977   1976  1975  1974  1973   1972   1971   1970  1969   1968   1967   1966   1965  1964  1963   1962   1961   1960   1959   1958   1957  1956   1955   1954   1953   1952  1951  1950  1949   1948  1947  1939   1938   1937   1936   1935   1934   1933  1932   1931   1930  1929   1928   1927   1926  1925  1924  1923   1922   1921   1920   1919  1914   1913   1912   1911   1910  1909   1908   1907   1906  1905  1904   1903 

Tourstats
Sitemap

After stage 21 - 2025:
 16451 starters.
  5464 different riders.
  689 teams.
  2398 stages.
  470 restdays.
  466506.50 km.
  5925 abandoned riders.

Click map for 1972 route.
Facts from Tour de France 1972
  |   Stages.  |   Stage winners.  |   Days in jerseys.  |   Teams.  |   All riders.  |   All riders by age.  |   All riders from.  |  

  |   Rookies.  |   Withdrawls.  |   Average speed.  |   GC.  |   Polka  |   Green  |   White  |   Summits. (In tour)  |   Miscellaneous.  |  

Stage 14b on July 17th. 1972
Pick a stage:  Pro  1  2  3a  3b  4  5a  5b  6  7  8  9  10  11  12  13  14a  14b  15  16  17  18  19  20a  20b  

After stage 14b:    Eddy Merckx  
  ValloireAix-les-Bains | Dist: 151.00km. | Winner: Cyrille Guimard

Podium
3  Col du Télégraphe Pietro Campagnariafter5.00 km.

2  Col du Grand Cucheron Eddy Merckxafter69.00 km.

1  Col du Granier Lucien Van Impeafter113.00 km.


Average speed for all riders in stage:  30,541 km./hr.

1
 Cyrille Guimard  Gan-Mercier-Hutchinson04h 48' 53"=31,362  km/h

2
 Eddy Merckx  Molteni04h 48' 53"=31,362  km/h

3
 Felice Gimondi  Salvarani04h 48' 53"=31,362  km/h

4  Joop Zoetemelk  Beaulieu-Flandria04h 48' 53"=31,362  km/h

5  Lucien Van Impe  Sonolor04h 48' 53"=31,362  km/h

6  Joaquim Agostinho  De Gribaldy-Magniflex-Van Cauter04h 48' 53"=31,362  km/h

7  Raymond Poulidor  Gan-Mercier-Hutchinson04h 48' 53"=31,362  km/h

8  Mariano Martinez  De Gribaldy-Magniflex-Van Cauter04h 48' 53"=31,362  km/h

9  Raymond Delisle  Peugeot-BP-Michelin04h 48' 57"+  00:00:04 =31,355  km/h

10  Jacky Mourioux  Gan-Mercier-Hutchinson04h 52' 19"+  00:03:26 =30,994  km/h

11  Frans Verbeeck  Watney-Avia04h 52' 19"+  00:03:26 =30,994  km/h

12  Rolf Wolfshohl  Rokado04h 52' 19"+  00:03:26 =30,994  km/h

13  Tony Houbrechts  Salvarani04h 52' 19"+  00:03:26 =30,994  km/h

14  Mathieu Pustjens  Sonolor04h 52' 19"+  00:03:26 =30,994  km/h

15  Michel Perin  Gan-Mercier-Hutchinson04h 52' 19"+  00:03:26 =30,994  km/h

16  Marc Lievens  Molteni04h 52' 19"+  00:03:26 =30,994  km/h

17  René Grelin  Gan-Mercier-Hutchinson04h 52' 19"+  00:03:26 =30,994  km/h

18  Eduard Janssens  De Gribaldy-Magniflex-Van Cauter04h 52' 19"+  00:03:26 =30,994  km/h

19  Martin Van Den Bossche  Molteni04h 52' 19"+  00:03:26 =30,994  km/h

20  Jean-Pierre Danguillaume  Peugeot-BP-Michelin04h 52' 19"+  00:03:26 =30,994  km/h

21  Yves Hézard  Sonolor04h 52' 19"+  00:03:26 =30,994  km/h

22  Lucien Aimar  Rokado04h 52' 19"+  00:03:26 =30,994  km/h

23  Willy Teirlinck  Sonolor04h 54' 12"+  00:05:19 =30,795  km/h

24  Tino Tabak  Goudsmit-Hoff04h 54' 12"+  00:05:19 =30,795  km/h

25  Léon-Paul Menard  Gitane04h 54' 12"+  00:05:19 =30,795  km/h

26  Walter Ricci  Sonolor04h 54' 12"+  00:05:19 =30,795  km/h

27  Jean-Pierre Parenteau  Peugeot-BP-Michelin04h 54' 12"+  00:05:19 =30,795  km/h

28  Karl-Heinz Kunde  Rokado04h 54' 12"+  00:05:19 =30,795  km/h

29  Ronald De Witte  Peugeot-BP-Michelin04h 54' 12"+  00:05:19 =30,795  km/h

30  Roger Swerts  Molteni04h 54' 12"+  00:05:19 =30,795  km/h

31  Johny Schleck  Bic04h 54' 12"+  00:05:19 =30,795  km/h

32  Leif Mortensen  Bic04h 54' 12"+  00:05:19 =30,795  km/h

33  Luis Ocaña  Bic04h 54' 12"+  00:05:19 =30,795  km/h

34  Guy Santy  Bic04h 54' 12"+  00:05:19 =30,795  km/h

35  Gilbert Bellone  Rokado04h 54' 12"+  00:05:19 =30,795  km/h

36  Gerben Karstens  Rokado04h 55' 36"+  00:06:43 =30,650  km/h

37  Wilfried Peffgen  Rokado04h 56' 56"+  00:08:03 =30,512  km/h

38  Ludo Van Staeyen  De Gribaldy-Magniflex-Van Cauter04h 56' 56"+  00:08:03 =30,512  km/h

39  Serge Bolley  Gitane04h 56' 56"+  00:08:03 =30,512  km/h

40  Primo Mori  Salvarani04h 56' 56"+  00:08:03 =30,512  km/h

41  Paul Aerts  Watney-Avia04h 56' 56"+  00:08:03 =30,512  km/h

42  Bernard Thevenet  Peugeot-BP-Michelin04h 56' 56"+  00:08:03 =30,512  km/h

43  Christian Raymond  Peugeot-BP-Michelin04h 56' 56"+  00:08:03 =30,512  km/h

44  Joseph Huysmans  Molteni04h 58' 16"+  00:09:23 =30,376  km/h

45  Joseph Bruyere  Molteni04h 58' 16"+  00:09:23 =30,376  km/h

46  Georges Chappe  Gitane04h 58' 16"+  00:09:23 =30,376  km/h

47  Jos De Schoenmaecker  Molteni04h 58' 16"+  00:09:23 =30,376  km/h

48  Willy In 't Ven  Molteni04h 58' 16"+  00:09:23 =30,376  km/h

49  Frans Mintjens  Molteni04h 58' 16"+  00:09:23 =30,376  km/h

50  Wilfried David  Peugeot-BP-Michelin04h 58' 16"+  00:09:23 =30,376  km/h

51  Jürgen Tschan  Peugeot-BP-Michelin04h 58' 16"+  00:09:23 =30,376  km/h

52  Herman Beyssens  De Gribaldy-Magniflex-Van Cauter04h 58' 16"+  00:09:23 =30,376  km/h

53  Joël Millard  De Gribaldy-Magniflex-Van Cauter04h 58' 16"+  00:09:23 =30,376  km/h

54  Karl-Heinz Muddemann  Rokado04h 58' 16"+  00:09:23 =30,376  km/h

55  Dieter Puschel  Rokado04h 58' 16"+  00:09:23 =30,376  km/h

56  Pietro Campagnari  Salvarani04h 59' 21"+  00:10:28 =30,266  km/h

57  Raymond Riotte  Sonolor04h 59' 39"+  00:10:46 =30,235  km/h

58  Jan Krekels  Goudsmit-Hoff04h 59' 39"+  00:10:46 =30,235  km/h

59  Bernard Guyot  Sonolor04h 59' 39"+  00:10:46 =30,235  km/h

60  Marino Basso  Salvarani04h 59' 39"+  00:10:46 =30,235  km/h

61  Giacinto Santambrogio  Salvarani04h 59' 39"+  00:10:46 =30,235  km/h

62  Rik Van Linden  De Gribaldy-Magniflex-Van Cauter04h 59' 39"+  00:10:46 =30,235  km/h

63  Rini Wagtmans  Goudsmit-Hoff04h 59' 39"+  00:10:46 =30,235  km/h

64  Jos van der Vleuten  Goudsmit-Hoff04h 59' 39"+  00:10:46 =30,235  km/h

65  Evert Dolman  Beaulieu-Flandria04h 59' 39"+  00:10:46 =30,235  km/h

66  Noël Vanclooster  Watney-Avia04h 59' 39"+  00:10:46 =30,235  km/h

67  Pieter Nassen  Watney-Avia04h 59' 39"+  00:10:46 =30,235  km/h

68  Marc Sohet  Watney-Avia04h 59' 39"+  00:10:46 =30,235  km/h

69  Walter Godefroot  Peugeot-BP-Michelin04h 59' 39"+  00:10:46 =30,235  km/h

70  Willy Van Neste  Beaulieu-Flandria04h 59' 39"+  00:10:46 =30,235  km/h

71  Willy Abbeloos  De Gribaldy-Magniflex-Van Cauter04h 59' 39"+  00:10:46 =30,235  km/h

72  Jean-Claude Largeau  De Gribaldy-Magniflex-Van Cauter04h 59' 39"+  00:10:46 =30,235  km/h

73  Roland Berland  Bic04h 59' 39"+  00:10:46 =30,235  km/h

74  Sylvain Vasseur  Bic04h 59' 39"+  00:10:46 =30,235  km/h

75  Jésus Aranzabal  Bic04h 59' 39"+  00:10:46 =30,235  km/h

76  Gérard David  Beaulieu-Flandria04h 59' 39"+  00:10:46 =30,235  km/h

77  Jan Van De Wiele  Beaulieu-Flandria04h 59' 39"+  00:10:46 =30,235  km/h

78  Gerard Vianen  Goudsmit-Hoff04h 59' 39"+  00:10:46 =30,235  km/h

79  Barry Hoban  Gan-Mercier-Hutchinson04h 59' 39"+  00:10:46 =30,235  km/h

80  Wim Prinsen  Goudsmit-Hoff04h 59' 39"+  00:10:46 =30,235  km/h

81  Régis Délépine  Gan-Mercier-Hutchinson04h 59' 39"+  00:10:46 =30,235  km/h

82  José Catieau  Sonolor04h 59' 39"+  00:10:46 =30,235  km/h

83  Jean-Claude Daunat  Gitane04h 59' 39"+  00:10:46 =30,235  km/h

84  René Grenier  Gitane04h 59' 39"+  00:10:46 =30,235  km/h

85  Michael Wright  Gitane04h 59' 39"+  00:10:46 =30,235  km/h

86  Jean-Claude Genty  Bic04h 59' 39"+  00:10:46 =30,235  km/h

87  Gerard Moneyron  Gan-Mercier-Hutchinson04h 59' 39"+  00:10:46 =30,235  km/h

88  Eddy Verstraeten  Watney-Avia05h 02' 14"+  00:13:21 =29,977  km/h

89  Pietro Guerra  Salvarani05h 02' 41"+  00:13:48 =29,932  km/h

90  Pierre Matignon  Gitane05h 02' 41"+  00:13:48 =29,932  km/h

91  Luigi Castelletti  Salvarani05h 02' 41"+  00:13:48 =29,932  km/h

92  Ronny Vanmarcke  Beaulieu-Flandria05h 02' 41"+  00:13:48 =29,932  km/h

93  Robert Mintkiewicz  Sonolor05h 02' 41"+  00:13:48 =29,932  km/h

94  Alain Bellouis  Gitane05h 02' 41"+  00:13:48 =29,932  km/h


Withdrawls: 2
 RiderTeamReason
17   Fernando Mendes Beaulieu-FlandriaDid not finish
60   Désiré Letort BicDid not finish
Todays birthdays.

1884 • Vincenzo Borgarello
1889 • Emile Bonnefoi
1889 • Auguste Denizot
1890 • Maurice Petit
1904 • Pierino Ferioli
1905 • Vincent Carrara
1910 • Antoon Van Schendel
1925 • Georges Meunier
1945 • Gérard Besnard
1950 • Wim Kelleners
1960 • Ivan Ivanov
1960 • Pierre-Henri Menthéour
1962 • Giovanni Bottoia
1964 • Flavio Giupponi
1974 • Benoit Salmon
1977 • Iñigo Landaluze
1977 • Svein Tuft
1979 • Rubens Bertogliati
1985 • Matthew Busche

 

Optimized for Chrome - Edge
and Opera browsers.